sat.trackr.live / text

‹ back to catalog

STARLINK-37462

NORAD 68822 · 2026-089W

PAYLOAD ACTIVE UNKNOWN

§ Identity

Operator
Country
US
Launch date
2026-04-23
Launch site
AFWTR
Launch vehicle
Mass (kg)
RCS (m²)

Purposes: comms

External: N2YO · Heavens-Above · Gunter

§ Orbital elements

Epoch: 2026-05-25T00:59:00.152736Z

Period
91.40 min
Inclination
97.2848°
Eccentricity
0.0002337
Mean motion
15.75487449 rev/d
Perigee alt
341.7 km
Apogee alt
344.8 km
Semi-major
6,721.4 km
B*
2.2962e-3
RAAN
351.7074°
Arg perigee
43.2009°
Mean anomaly
316.9439°
Rev number
505

§ Raw data

STARLINK-374621 68822U 26089W   26145.04097399  .00361909  00000+0  22962-2 0  99902 68822  97.2848 351.7074 0002337  43.2009 316.9439 15.75487449  5055

JSON: /api/v1/satellites/68822 · /tle

For live sub-satellite position, see the globe view (requires WebGL).

§ Visibility from observer

Set your observer location to see the next 7 days of passes ≥ 10°. The values pass through the URL so the page stays shareable.

No JS? Fill the form by hand. The geolocation button needs JavaScript.